TimeCDT,TemperatureF,Dew PointF,Humidity,Sea Level PressureIn,VisibilityMPH,Wind Direction,Wind SpeedMPH,Gust SpeedMPH,PrecipitationIn,Events,Conditions,WindDirDegrees,DateUTC
12:53 AM,75.0,69.1,82,29.86,10.0,South,10.4,-,N/A,,Clear,170,2013-07-13 05:53:00
1:53 AM,73.0,66.9,81,29.87,10.0,SSE,9.2,-,N/A,,Scattered Clouds,160,2013-07-13 06:53:00
2:53 AM,73.0,66.0,79,29.88,10.0,SSE,9.2,-,N/A,,Overcast,150,2013-07-13 07:53:00
3:53 AM,73.0,66.0,79,29.87,10.0,SSE,9.2,-,N/A,,Overcast,150,2013-07-13 08:53:00
4:53 AM,72.0,66.0,81,29.88,10.0,SSE,9.2,-,N/A,,Partly Cloudy,150,2013-07-13 09:53:00
5:13 AM,71.6,66.2,83,29.91,10.0,ESE,4.6,-,N/A,,Mostly Cloudy,120,2013-07-13 10:13:00
5:34 AM,71.6,66.2,83,29.92,10.0,East,5.8,-,N/A,,Overcast,100,2013-07-13 10:34:00
5:53 AM,71.1,66.0,84,29.91,9.0,East,6.9,-,N/A,,Overcast,100,2013-07-13 10:53:00
6:53 AM,71.1,64.9,81,29.93,10.0,ESE,8.1,-,N/A,,Partly Cloudy,120,2013-07-13 11:53:00
7:53 AM,71.1,64.9,81,29.94,10.0,SE,10.4,-,N/A,,Clear,130,2013-07-13 12:53:00
8:26 AM,71.6,64.4,78,29.97,10.0,SE,13.8,-,N/A,,Mostly Cloudy,140,2013-07-13 13:26:00
8:36 AM,71.6,64.4,78,29.97,10.0,SE,8.1,-,N/A,,Scattered Clouds,140,2013-07-13 13:36:00
8:53 AM,72.0,66.0,81,29.95,10.0,SE,10.4,-,N/A,,Clear,130,2013-07-13 13:53:00
9:53 AM,73.0,66.0,79,29.97,10.0,SSE,10.4,-,N/A,,Mostly Cloudy,150,2013-07-13 14:53:00
10:53 AM,72.0,64.9,78,29.98,10.0,SSE,9.2,-,N/A,,Overcast,150,2013-07-13 15:53:00
11:39 AM,71.6,64.4,78,30.00,10.0,SSE,10.4,-,N/A,,Overcast,150,2013-07-13 16:39:00
11:53 AM,72.0,64.9,78,29.97,10.0,ESE,10.4,-,N/A,,Overcast,120,2013-07-13 16:53:00
12:11 PM,71.6,66.2,83,29.99,10.0,SE,8.1,-,N/A,,Overcast,140,2013-07-13 17:11:00
12:19 PM,73.4,66.2,78,29.98,10.0,ESE,9.2,-,N/A,,Mostly Cloudy,120,2013-07-13 17:19:00
12:53 PM,73.0,66.9,81,29.96,10.0,ESE,6.9,-,N/A,,Scattered Clouds,120,2013-07-13 17:53:00
1:18 PM,73.4,66.2,78,30.00,10.0,SSE,6.9,-,N/A,,Mostly Cloudy,150,2013-07-13 18:18:00
1:35 PM,71.6,66.2,83,30.00,10.0,SSE,6.9,-,N/A,,Overcast,160,2013-07-13 18:35:00
1:44 PM,71.6,66.2,83,29.99,10.0,SE,6.9,-,N/A,,Overcast,130,2013-07-13 18:44:00
1:53 PM,72.0,66.0,81,29.98,10.0,SE,6.9,-,N/A,,Overcast,130,2013-07-13 18:53:00
2:10 PM,71.6,66.2,83,30.00,10.0,SSE,5.8,-,N/A,,Mostly Cloudy,150,2013-07-13 19:10:00
2:45 PM,73.4,66.2,78,30.01,10.0,SE,6.9,-,N/A,,Overcast,140,2013-07-13 19:45:00
2:53 PM,73.0,66.9,81,30.00,10.0,SSE,6.9,-,N/A,,Overcast,150,2013-07-13 19:53:00
3:53 PM,73.9,66.9,79,30.00,10.0,East,8.1,-,N/A,,Overcast,100,2013-07-13 20:53:00
4:53 PM,75.9,66.9,74,29.99,10.0,East,10.4,-,N/A,,Overcast,90,2013-07-13 21:53:00
5:22 PM,75.2,66.2,73,30.00,10.0,East,11.5,-,N/A,,Scattered Clouds,90,2013-07-13 22:22:00
5:44 PM,75.2,68.0,78,30.01,8.0,East,9.2,-,N/A,,Mostly Cloudy,100,2013-07-13 22:44:00
5:53 PM,75.9,66.9,74,29.99,10.0,East,10.4,-,N/A,,Mostly Cloudy,90,2013-07-13 22:53:00
6:53 PM,75.0,66.9,76,29.98,10.0,East,11.5,-,N/A,,Overcast,100,2013-07-13 23:53:00
7:53 PM,73.9,66.9,79,29.99,10.0,SSE,11.5,-,N/A,,Overcast,150,2013-07-14 00:53:00
8:34 PM,73.4,66.2,78,30.00,10.0,SE,9.2,-,N/A,,Overcast,130,2013-07-14 01:34:00
8:53 PM,72.0,66.0,81,29.98,10.0,SE,11.5,-,N/A,,Overcast,140,2013-07-14 01:53:00
9:53 PM,72.0,66.9,84,30.00,10.0,SE,13.8,19.6,N/A,,Overcast,130,2013-07-14 02:53:00
10:53 PM,72.0,66.9,84,30.03,10.0,SE,12.7,-,N/A,,Overcast,130,2013-07-14 03:53:00
11:53 PM,71.1,64.9,81,30.04,10.0,SE,12.7,-,N/A,,Overcast,140,2013-07-14 04:53:00